User: anonymous   Login
Location: Erdweis
(48.5167°N, 15.3500°E)
Time: 23:39:42
(UTC+00:00)
Language:

NOSS 2-2 (C) - Orbit

View from above orbital plane
View from above orbital plane
View from above satellite
View from above satellite

Ground track
Ground track

The orbit data is extracted from the following two-line orbital elements,

1 21799U 91076C   21122.85926827 0.00000500  00000-0  84185-4 0    04
2 21799  63.3219  34.6095 0862199  43.0947 316.9053 13.41479049    02
Epoch (UTC): 02 May 2021 20:37:20
Eccentricity: 0.0862199
inclination: 63.3219°
perigee height: 458 km
apogee height: 1749 km
right ascension of ascending node: 34.6095°
argument of perigee: 43.0947°
revolutions per day: 13.41479049
mean anomaly at epoch: 316.9053°
orbit number at epoch: 0

The dashed part of the orbit path shows where the satellite is in the earth's shadow,  

DLR